This is the latest recevied weather packets stored in our database for station/object N3OZD-10. If no packets are shown the sender has not sent any weather packets the latest 10 day(s).
| Time | Temp. | Humidity | Pressure | Rain* | Wind** | Luminosity | Snow |
|---|---|---|---|---|---|---|---|
| 1778165241 | 12.22° C | 60% | 1011.9 hPa | 0 mm | - | - | - |
| 1778164940 | 12.22° C | 61% | 1012 hPa | 0 mm | - | - | - |
| 1778164641 | 12.22° C | 61% | 1011.9 hPa | 0 mm | - | - | - |
| 1778164341 | 12.22° C | 63% | 1011.7 hPa | 0 mm | - | - | - |
| 1778164040 | 12.22° C | 62% | 1011.9 hPa | 0 mm | - | - | - |
| 1778163740 | 12.22° C | 63% | 1012 hPa | 0 mm | - | - | - |
| 1778163441 | 11.67° C | 62% | 1012.1 hPa | 0 mm | - | - | - |
| 1778163140 | 12.22° C | 63% | 1012.2 hPa | 0 mm | - | - | - |
| 1778162841 | 11.67° C | 61% | 1012.2 hPa | 0 mm | - | - | - |
| 1778162542 | 11.67° C | 61% | 1012.3 hPa | 0 mm | - | - | - |
| 1778162240 | 12.22° C | 62% | 1012.5 hPa | 0 mm | - | - | - |
| 1778161940 | 12.22° C | 61% | 1012.5 hPa | 0 mm | - | - | - |
| 1778161642 | 11.67° C | 64% | 1012.5 hPa | 0 mm | - | - | - |
| 1778161341 | 11.67° C | 60% | 1012.3 hPa | 0 mm | - | - | - |
| 1778161040 | 11.67° C | 65% | 1012.4 hPa | 0 mm | - | - | - |
| 1778160741 | 11.67° C | 69% | 1012.4 hPa | 0 mm | - | - | - |
| 1778160443 | 11.67° C | 66% | 1012.4 hPa | 0 mm | - | - | - |
| 1778160141 | 12.22° C | 68% | 1012.4 hPa | 0 mm | - | - | - |
| 1778159840 | 11.67° C | 69% | 1012.4 hPa | 0 mm | - | - | - |
| 1778159541 | 11.67° C | 67% | 1012.4 hPa | 0 mm | - | - | - |
| 1778159240 | 11.67° C | 71% | 1012.4 hPa | 0 mm | - | - | - |
| 1778158640 | 11.11° C | 73% | 1012.3 hPa | 0 mm | - | - | - |
| 1778158342 | 11.11° C | 71% | 1012.3 hPa | 0 mm | - | - | - |
| 1778158041 | 11.11° C | 71% | 1012.2 hPa | 0 mm | - | - | - |
| 1778157741 | 11.11° C | 72% | 1012.1 hPa | 0 mm | - | - | - |
* Rain latest hour (hover to see other rain measurements)
** Current wind speed in m/s (hover to see current wind gust speed)